Location: ??
(35.5090°N, 139.6783°E)
Time: 19:24:23
(UTC+00:00)

IRAS Rocket - Pass Details

Date: 08 November 2025
Orbit: 845 x 876 km, 100.1° (Epoch: 08 December)

Event Time Altitude Azimuth Distance (km) Brightness Sun altitude
Rises 08:49:11 0° 154° (SSE) 3,450 7.2 -14.4°
Reaches altitude 10° 08:51:35 10° 150° (SSE) 2,513 6.5 -14.9°
Maximum altitude 08:57:04 61° 72° (ENE) 985 4.2 -16.0°
Drops below altitude 10° 09:02:33 10° 353° (N) 2,510 6.6 -17.1°
Sets 09:04:56 0° 350° (N) 3,446 7.4 -17.6°
